• In Netherlands
  • List of Countries
  • For 7 days
  • Water Temperature
  • Satellite Maps
  • Weather Map
  • Weather Widgets
  • user-avatar
    Login

    Hourly Weather Ordino

    Today, 25 April, Tuesday

    Time Temperature Precipitation Wind Pressure Humidity
    00:00 +4°C° 0 mm 2 mps 630 mmHg 69%
    01:00 +5°C° 0 mm 1 mps 629 mmHg 70%
    02:00 +4°C° 0 mm 1 mps 629 mmHg 70%
    03:00 +4°C° 0 mm 1 mps 628 mmHg 71%
    04:00 +4°C° 0 mm 1 mps 628 mmHg 70%
    05:00 +5°C° 0 mm 1 mps 628 mmHg 68%
    06:00 +6°C° 0 mm 1 mps 628 mmHg 67%
    07:00 +7°C° 0 mm 2 mps 629 mmHg 62%
    08:00 +9°C° 0 mm 2 mps 630 mmHg 57%
    09:00 +13°C° 0 mm 2 mps 630 mmHg 52%
    10:00 +12°C° 0.1 mm 3 mps 630 mmHg 52%
    11:00 +13°C° 0.1 mm 3 mps 630 mmHg 52%
    12:00 +14°C° 0.1 mm 3 mps 630 mmHg 52%
    13:00 +13°C° 0.5 mm 4 mps 629 mmHg 57%
    14:00 +13°C° 0.5 mm 4 mps 629 mmHg 62%
    15:00 +12°C° 0.5 mm 4 mps 628 mmHg 67%
    16:00 +11°C° 1.8 mm 3 mps 627 mmHg 76%
    17:00 +9°C° 1.8 mm 2 mps 627 mmHg 84%
    18:00 +8°C° 1.8 mm 2 mps 626 mmHg 92%
    19:00 +7°C° 2 mm 2 mps 626 mmHg 94%
    20:00 +6°C° 2 mm 2 mps 626 mmHg 96%
    21:00 +6°C° 2 mm 1 mps 626 mmHg 98%
    22:00 +6°C° 0.8 mm 1 mps 626 mmHg 98%
    23:00 +6°C° 0.8 mm 1 mps 626 mmHg 97%

    Tomorrow, 26 April, Wednesday

    Time Temperature Precipitation Wind Pressure Humidity
    00:00 +6°C° 0.8 mm 1 mps 626 mmHg 97%
    01:00 +5°C° 0.2 mm 1 mps 626 mmHg 97%
    02:00 +5°C° 0.2 mm 1 mps 626 mmHg 97%
    03:00 +5°C° 0.2 mm 1 mps 625 mmHg 97%
    04:00 +5°C° 0.1 mm 1 mps 626 mmHg 97%
    05:00 +5°C° 0.1 mm 1 mps 626 mmHg 97%
    06:00 +5°C° 0.1 mm 1 mps 626 mmHg 97%
    07:00 +5°C° 0.1 mm 1 mps 626 mmHg 92%
    08:00 +5°C° 0.1 mm 2 mps 627 mmHg 88%
    09:00 +5°C° 0.1 mm 2 mps 627 mmHg 83%
    10:00 +5°C° 0.3 mm 2 mps 628 mmHg 80%
    11:00 +4°C° 0.3 mm 3 mps 628 mmHg 77%
    12:00 +5°C° 0.3 mm 3 mps 628 mmHg 73%
    13:00 +5°C° 0.3 mm 3 mps 628 mmHg 72%
    14:00 +5°C° 0.3 mm 3 mps 628 mmHg 71%
    15:00 +5°C° 0.3 mm 3 mps 628 mmHg 70%
    16:00 +4°C° 0.5 mm 3 mps 628 mmHg 75%
    17:00 +3°C° 0.5 mm 3 mps 628 mmHg 81%
    18:00 +1°C° 0.5 mm 3 mps 628 mmHg 86%
    19:00 +1°C° 0.7 mm 3 mps 628 mmHg 87%
    20:00 0°C° 0.7 mm 3 mps 628 mmHg 88%
    21:00 -1°C° 0.7 mm 3 mps 629 mmHg 90%
    22:00 -1°C° 0.5 mm 3 mps 629 mmHg 90%
    23:00 -1°C° 0.5 mm 2 mps 628 mmHg 90%

    Day after tomorrow, 27 April, Thursday

    Time Temperature Precipitation Wind Pressure Humidity
    00:00 -2°C° 0.5 mm 2 mps 628 mmHg 91%
    01:00 -2°C° 0.5 mm 2 mps 628 mmHg 91%
    02:00 -2°C° 0.5 mm 2 mps 628 mmHg 92%
    03:00 -3°C° 0.5 mm 2 mps 628 mmHg 92%
    04:00 -3°C° 0.4 mm 2 mps 628 mmHg 92%
    05:00 -3°C° 0.4 mm 2 mps 628 mmHg 91%
    06:00 -3°C° 0.4 mm 2 mps 628 mmHg 90%
    07:00 -2°C° 0.1 mm 3 mps 629 mmHg 84%
    08:00 -1°C° 0.1 mm 3 mps 629 mmHg 78%
    09:00 0°C° 0.1 mm 3 mps 629 mmHg 73%
    10:00 0°C° 0.1 mm 3 mps 630 mmHg 69%
    11:00 +1°C° 0.1 mm 3 mps 630 mmHg 65%
    12:00 +2°C° 0.1 mm 3 mps 630 mmHg 62%
    13:00 +2°C° 0.2 mm 3 mps 630 mmHg 62%
    14:00 +2°C° 0.2 mm 3 mps 630 mmHg 61%
    15:00 +2°C° 0.2 mm 3 mps 630 mmHg 61%
    16:00 +1°C° 0.2 mm 3 mps 630 mmHg 66%
    17:00 0°C° 0.2 mm 3 mps 630 mmHg 70%
    18:00 -1°C° 0.2 mm 3 mps 630 mmHg 75%
    19:00 -2°C° 0 mm 3 mps 630 mmHg 77%
    20:00 -4°C° 0 mm 3 mps 630 mmHg 79%
    21:00 -6°C° 0 mm 3 mps 630 mmHg 81%
    22:00 -6°C° 0 mm 3 mps 630 mmHg 80%
    23:00 -6°C° 0 mm 3 mps 630 mmHg 80%

    28 April, Friday

    Time Temperature Precipitation Wind Pressure Humidity
    00:00 -6°C° 0 mm 3 mps 630 mmHg 80%
    01:00 -6°C° 0 mm 2 mps 630 mmHg 80%
    02:00 -6°C° 0 mm 2 mps 630 mmHg 79%
    03:00 -6°C° 0 mm 2 mps 629 mmHg 79%
    04:00 -6°C° 0 mm 2 mps 630 mmHg 77%
    05:00 -5°C° 0 mm 2 mps 630 mmHg 75%
    06:00 -4°C° 0 mm 2 mps 630 mmHg 73%
    07:00 -2°C° 0 mm 2 mps 631 mmHg 66%
    08:00 +1°C° 0 mm 2 mps 632 mmHg 60%
    09:00 +3°C° 0 mm 2 mps 633 mmHg 53%
    10:00 +4°C° 0 mm 2 mps 633 mmHg 52%
    11:00 +6°C° 0 mm 2 mps 633 mmHg 50%
    12:00 +8°C° 0 mm 1 mps 633 mmHg 49%
    13:00 +8°C° 0 mm 1 mps 633 mmHg 50%
    14:00 +8°C° 0 mm 1 mps 633 mmHg 51%
    15:00 +8°C° 0 mm 1 mps 632 mmHg 52%
    16:00 +7°C° 0 mm 1 mps 632 mmHg 58%
    17:00 +6°C° 0 mm 1 mps 632 mmHg 63%
    18:00 +5°C° 0 mm 1 mps 631 mmHg 69%
    19:00 +3°C° 0 mm 1 mps 631 mmHg 76%
    20:00 +1°C° 0 mm 1 mps 630 mmHg 83%
    21:00 -1°C° 0 mm 1 mps 630 mmHg 90%
    22:00 -2°C° 0 mm 1 mps 629 mmHg 91%
    23:00 -2°C° 0 mm 1 mps 629 mmHg 92%

    29 April, Saturday

    Time Temperature Precipitation Wind Pressure Humidity
    00:00 -3°C° 0 mm 1 mps 629 mmHg 92%
    01:00 -3°C° 0 mm 1 mps 629 mmHg 92%
    02:00 -3°C° 0 mm 1 mps 628 mmHg 92%
    03:00 -3°C° 0 mm 1 mps 628 mmHg 91%
    04:00 -1°C° 0 mm 1 mps 629 mmHg 87%
    05:00 0°C° 0 mm 1 mps 629 mmHg 83%
    06:00 +1°C° 0 mm 1 mps 630 mmHg 79%
    07:00 +4°C° 0 mm 1 mps 630 mmHg 71%
    08:00 +5°C° 0 mm 2 mps 631 mmHg 63%
    09:00 +7°C° 0 mm 2 mps 632 mmHg 55%
    10:00 +8°C° 0 mm 3 mps 632 mmHg 54%
    11:00 +9°C° 0 mm 3 mps 632 mmHg 52%
    12:00 +10°C° 0 mm 3 mps 632 mmHg 50%
    13:00 +10°C° 0 mm 3 mps 631 mmHg 54%
    14:00 +10°C° 0 mm 3 mps 631 mmHg 58%
    15:00 +10°C° 0 mm 3 mps 630 mmHg 62%
    16:00 +8°C° 0 mm 3 mps 629 mmHg 69%
    17:00 +7°C° 0 mm 3 mps 629 mmHg 76%
    18:00 +5°C° 0 mm 3 mps 628 mmHg 84%
    19:00 +4°C° 0.1 mm 3 mps 628 mmHg 85%
    20:00 +3°C° 0.1 mm 3 mps 628 mmHg 87%
    21:00 +3°C° 0.1 mm 3 mps 628 mmHg 89%
    22:00 +3°C° 0.2 mm 3 mps 628 mmHg 89%
    23:00 +3°C° 0.2 mm 3 mps 627 mmHg 89%

    30 April, Sunday

    Time Temperature Precipitation Wind Pressure Humidity
    00:00 +3°C° 0.2 mm 3 mps 627 mmHg 88%
    01:00 +4°C° 0.5 mm 2 mps 627 mmHg 89%
    02:00 +4°C° 0.5 mm 2 mps 627 mmHg 90%
    03:00 +4°C° 0.5 mm 2 mps 627 mmHg 91%
    04:00 +4°C° 0.4 mm 2 mps 627 mmHg 91%
    05:00 +5°C° 0.4 mm 2 mps 627 mmHg 92%
    06:00 +5°C° 0.4 mm 2 mps 627 mmHg 92%
    07:00 +6°C° 0.1 mm 2 mps 628 mmHg 88%
    08:00 +7°C° 0.1 mm 2 mps 628 mmHg 84%
    09:00 +8°C° 0.1 mm 3 mps 629 mmHg 81%
    10:00 +9°C° 0.3 mm 3 mps 629 mmHg 77%
    11:00 +10°C° 0.3 mm 3 mps 629 mmHg 74%
    12:00 +10°C° 0.3 mm 3 mps 629 mmHg 70%
    13:00 +11°C° 0.3 mm 3 mps 629 mmHg 67%
    14:00 +11°C° 0.3 mm 4 mps 629 mmHg 64%
    15:00 +11°C° 0.3 mm 4 mps 629 mmHg 61%
    16:00 +10°C° 0.5 mm 4 mps 629 mmHg 67%
    17:00 +8°C° 0.5 mm 3 mps 629 mmHg 72%
    18:00 +7°C° 0.5 mm 3 mps 629 mmHg 78%
    19:00 +4°C° 0.2 mm 3 mps 629 mmHg 83%
    20:00 +4°C° 0.2 mm 2 mps 630 mmHg 87%
    21:00 +2°C° 0.2 mm 2 mps 630 mmHg 91%
    22:00 +2°C° 0 mm 2 mps 630 mmHg 92%
    23:00 +1°C° 0 mm 2 mps 630 mmHg 92%
    Show more